When you browse on this site, cookies collect data to enhance your experience and personalize the content and advertising you see.
Visit our Privacy Policy to learn more. By continuing to use the site, you agree to this use of cookies and data.
EN

Hourly Weather Monrovia

Today, 9 August, Sunday

Time Temperature Precipitation Wind Pressure Humidity
00:00 +22°C° 0 mm 1 mps 711 mmHg 54%
01:00 +22°C° 0 mm 1 mps 711 mmHg 53%
02:00 +21°C° 0 mm 1 mps 711 mmHg 52%
03:00 +21°C° 0 mm 1 mps 711 mmHg 52%
04:00 +21°C° 0 mm 1 mps 711 mmHg 52%
05:00 +23°C° 0 mm 1 mps 711 mmHg 49%
06:00 +24°C° 0 mm 1 mps 711 mmHg 46%
07:00 +25°C° 0 mm 1 mps 712 mmHg 44%
08:00 +27°C° 0 mm 1 mps 712 mmHg 40%
09:00 +28°C° 0 mm 2 mps 712 mmHg 37%
10:00 +30°C° 0 mm 2 mps 713 mmHg 33%
11:00 +31°C° 0 mm 3 mps 712 mmHg 31%
12:00 +33°C° 0 mm 3 mps 712 mmHg 29%
13:00 +34°C° 0 mm 4 mps 711 mmHg 26%
14:00 +33°C° 0 mm 4 mps 711 mmHg 27%
15:00 +33°C° 0 mm 4 mps 711 mmHg 27%
16:00 +32°C° 0 mm 4 mps 710 mmHg 27%
17:00 +29°C° 0 mm 3 mps 710 mmHg 32%
18:00 +27°C° 0 mm 2 mps 710 mmHg 37%
19:00 +25°C° 0 mm 2 mps 710 mmHg 42%
20:00 +24°C° 0 mm 1 mps 710 mmHg 41%
21:00 +24°C° 0 mm 1 mps 710 mmHg 40%
22:00 +23°C° 0 mm 1 mps 710 mmHg 40%
23:00 +23°C° 0 mm 1 mps 710 mmHg 40%

Tomorrow, 10 August, Monday

Time Temperature Precipitation Wind Pressure Humidity
00:00 +22°C° 0 mm 1 mps 710 mmHg 41%
01:00 +22°C° 0 mm 1 mps 710 mmHg 42%
02:00 +22°C° 0 mm 1 mps 710 mmHg 42%
03:00 +21°C° 0 mm 1 mps 710 mmHg 43%
04:00 +21°C° 0 mm 1 mps 710 mmHg 43%
05:00 +22°C° 0 mm 1 mps 710 mmHg 41%
06:00 +23°C° 0 mm 1 mps 711 mmHg 39%
07:00 +25°C° 0 mm 1 mps 711 mmHg 37%
08:00 +26°C° 0 mm 1 mps 712 mmHg 33%
09:00 +28°C° 0 mm 2 mps 712 mmHg 30%
10:00 +30°C° 0 mm 2 mps 712 mmHg 26%
11:00 +31°C° 0 mm 3 mps 712 mmHg 23%
12:00 +33°C° 0 mm 3 mps 712 mmHg 20%
13:00 +34°C° 0 mm 3 mps 711 mmHg 18%
14:00 +34°C° 0 mm 4 mps 711 mmHg 18%
15:00 +33°C° 0 mm 4 mps 710 mmHg 19%
16:00 +33°C° 0 mm 4 mps 710 mmHg 20%
17:00 +29°C° 0 mm 3 mps 710 mmHg 25%
18:00 +27°C° 0 mm 2 mps 709 mmHg 31%
19:00 +24°C° 0 mm 2 mps 709 mmHg 37%
20:00 +24°C° 0 mm 2 mps 710 mmHg 36%
21:00 +23°C° 0 mm 1 mps 710 mmHg 35%
22:00 +23°C° 0 mm 1 mps 710 mmHg 34%
23:00 +22°C° 0 mm 1 mps 710 mmHg 34%

Day after tomorrow, 11 August, Tuesday

Time Temperature Precipitation Wind Pressure Humidity
00:00 +22°C° 0 mm 1 mps 710 mmHg 35%
01:00 +22°C° 0 mm 1 mps 710 mmHg 35%
02:00 +22°C° 0 mm 1 mps 710 mmHg 37%
03:00 +22°C° 0 mm 1 mps 710 mmHg 38%
04:00 +21°C° 0 mm 1 mps 709 mmHg 40%
05:00 +23°C° 0 mm 1 mps 710 mmHg 38%
06:00 +24°C° 0 mm 1 mps 710 mmHg 36%
07:00 +25°C° 0 mm 1 mps 710 mmHg 34%
08:00 +27°C° 0 mm 1 mps 711 mmHg 30%
09:00 +29°C° 0 mm 2 mps 711 mmHg 26%
10:00 +31°C° 0 mm 2 mps 711 mmHg 23%
11:00 +31°C° 0 mm 3 mps 711 mmHg 22%
12:00 +33°C° 0 mm 3 mps 711 mmHg 20%
13:00 +34°C° 0 mm 4 mps 711 mmHg 19%
14:00 +34°C° 0 mm 4 mps 710 mmHg 20%
15:00 +33°C° 0 mm 4 mps 710 mmHg 20%
16:00 +33°C° 0 mm 3 mps 709 mmHg 20%
17:00 +29°C° 0 mm 3 mps 709 mmHg 24%
18:00 +27°C° 0 mm 2 mps 709 mmHg 28%
19:00 +25°C° 0 mm 2 mps 709 mmHg 33%
20:00 +24°C° 0 mm 1 mps 709 mmHg 33%
21:00 +24°C° 0 mm 1 mps 710 mmHg 33%
22:00 +23°C° 0 mm 1 mps 710 mmHg 33%
23:00 +23°C° 0 mm 1 mps 710 mmHg 34%

12 August, Wednesday

Time Temperature Precipitation Wind Pressure Humidity
00:00 +23°C° 0 mm 1 mps 710 mmHg 34%
01:00 +22°C° 0 mm 1 mps 710 mmHg 35%
02:00 +22°C° 0 mm 1 mps 710 mmHg 35%
03:00 +22°C° 0 mm 1 mps 710 mmHg 35%
04:00 +22°C° 0 mm 1 mps 709 mmHg 35%
05:00 +23°C° 0 mm 1 mps 710 mmHg 34%
06:00 +24°C° 0 mm 1 mps 710 mmHg 32%
07:00 +25°C° 0 mm 1 mps 710 mmHg 31%
08:00 +27°C° 0 mm 1 mps 711 mmHg 27%
09:00 +29°C° 0 mm 2 mps 711 mmHg 24%
10:00 +31°C° 0 mm 2 mps 711 mmHg 20%
11:00 +33°C° 0 mm 3 mps 711 mmHg 18%
12:00 +34°C° 0 mm 3 mps 711 mmHg 16%
13:00 +35°C° 0 mm 4 mps 711 mmHg 15%
14:00 +35°C° 0 mm 4 mps 710 mmHg 15%
15:00 +34°C° 0 mm 4 mps 710 mmHg 15%
16:00 +34°C° 0 mm 4 mps 710 mmHg 15%
17:00 +30°C° 0 mm 3 mps 710 mmHg 20%
18:00 +28°C° 0 mm 2 mps 710 mmHg 25%
19:00 +25°C° 0 mm 2 mps 710 mmHg 30%
20:00 +25°C° 0 mm 1 mps 710 mmHg 29%
21:00 +25°C° 0 mm 1 mps 710 mmHg 28%
22:00 +25°C° 0 mm 1 mps 711 mmHg 27%
23:00 +25°C° 0 mm 1 mps 710 mmHg 26%

13 August, Thursday

Time Temperature Precipitation Wind Pressure Humidity
00:00 +24°C° 0 mm 1 mps 710 mmHg 26%
01:00 +24°C° 0 mm 1 mps 710 mmHg 25%
02:00 +24°C° 0 mm 1 mps 710 mmHg 25%
03:00 +24°C° 0 mm 1 mps 710 mmHg 25%
04:00 +24°C° 0 mm 1 mps 710 mmHg 26%
05:00 +25°C° 0.1 mm 1 mps 710 mmHg 26%
06:00 +26°C° 0.1 mm 1 mps 710 mmHg 27%
07:00 +27°C° 0.1 mm 1 mps 711 mmHg 27%
08:00 +29°C° 0.1 mm 1 mps 711 mmHg 24%
09:00 +30°C° 0.1 mm 2 mps 711 mmHg 22%
10:00 +32°C° 0.1 mm 2 mps 712 mmHg 19%
11:00 +34°C° 0 mm 2 mps 711 mmHg 17%
12:00 +35°C° 0 mm 3 mps 711 mmHg 16%
13:00 +35°C° 0 mm 3 mps 711 mmHg 14%
14:00 +35°C° 0 mm 3 mps 711 mmHg 15%
15:00 +35°C° 0 mm 3 mps 711 mmHg 16%
16:00 +35°C° 0 mm 3 mps 710 mmHg 16%
17:00 +32°C° 0 mm 2 mps 710 mmHg 19%
18:00 +30°C° 0 mm 2 mps 710 mmHg 21%
19:00 +28°C° 0 mm 1 mps 710 mmHg 24%
20:00 +28°C° 0 mm 1 mps 710 mmHg 25%
21:00 +28°C° 0 mm 1 mps 710 mmHg 27%
22:00 +28°C° 0 mm 1 mps 710 mmHg 28%
23:00 +27°C° 0 mm 1 mps 710 mmHg 29%

14 August, Friday

Time Temperature Precipitation Wind Pressure Humidity
00:00 +27°C° 0 mm 1 mps 710 mmHg 29%
01:00 +25°C° 0 mm 0 mps 710 mmHg 30%
02:00 +25°C° 0 mm 0 mps 710 mmHg 31%
03:00 +25°C° 0 mm 0 mps 710 mmHg 31%
04:00 +27°C° 0 mm 1 mps 710 mmHg 31%
05:00 +26°C° 0 mm 0 mps 710 mmHg 30%
06:00 +27°C° 0 mm 0 mps 710 mmHg 28%
07:00 +28°C° 0 mm 0 mps 711 mmHg 27%
08:00 +31°C° 0 mm 1 mps 711 mmHg 24%
09:00 +34°C° 0 mm 2 mps 711 mmHg 21%
10:00 +36°C° 0 mm 2 mps 711 mmHg 18%
11:00 +37°C° 0 mm 3 mps 711 mmHg 16%
12:00 +38°C° 0 mm 3 mps 711 mmHg 15%
13:00 +40°C° 0 mm 4 mps 711 mmHg 14%
14:00 +38°C° 0 mm 4 mps 710 mmHg 14%
15:00 +38°C° 0 mm 4 mps 710 mmHg 14%
16:00 +38°C° 0 mm 4 mps 709 mmHg 14%
17:00 +36°C° 0 mm 3 mps 709 mmHg 17%
18:00 +34°C° 0 mm 2 mps 709 mmHg 19%
19:00 +31°C° 0 mm 1 mps 709 mmHg 21%
20:00 +30°C° 0 mm 1 mps 709 mmHg 22%
21:00 +30°C° 0 mm 1 mps 710 mmHg 23%
22:00 +29°C° 0 mm 1 mps 710 mmHg 24%
23:00 +29°C° 0 mm 1 mps 710 mmHg 25%
Show more